Weather History for Stanley, ID

Change the Weather History Date:

Friday, June 22, 2012

  Actual Average Record
Temperature  
Mean Temperature 59 °F 51 °F  
Max Temperature 77 °F 69 °F 89 °F (1973)
Min Temperature 41 °F 33 °F 26 °F (1983)
Degree Days  
Heating Degree Days 6 14  
Month to date heating degree days 373 355  
Since 1 June heating degree days 373 355  
Since 1 July heating degree days 10603 10697  
Cooling Degree Days 0 0  
Month to date cooling degree days 0 0  
Year to date cooling degree days 0 0  
Since 1 June cooling degree days 0 0  
Growing Degree Days 10 (Base 50)    
Moisture  
Dew Point 30 °F    
Average Humidity 40    
Maximum Humidity 65    
Minimum Humidity 15    
Precipitation  
Precipitation 0.00 in 0.04 in 0.42 in (1998)
Month to date precipitation 0.88 1.06  
Year to date precipitation 14.41 9.59  
Sea Level Pressure  
Sea Level Pressure 29.57 in    
Wind  
Wind Speed 5 mph (SSE)    
Max Wind Speed 17 mph    
Max Gust Speed 33 mph    
T = Trace of Precipitation, MM = Missing Value Source: NWS Daily Summary

Daily Weather History Graph

Daily Weather History Graph

Search for Another Location

Airport:

Trip Planner

Search our weather history database for the weather conditions in past years. The results will help you decide how hot, cold, wet, or windy it might be!

Date:

Astronomy

Jun. 22, 2012 Rise Set
Actual Time 5:56 AM MDT 9:27 PM MDT
Civil Twilight 5:20 AM MDT 10:03 PM MDT
Nautical Twilight 4:31 AM MDT 10:51 PM MDT
Astronomical Twilight 3:30 AM MDT 11:53 PM MDT
Moon 9:06 AM MDT 11:18 PM MDT
Length of Visible Light 16h 43m
Length of Day
15h 30m
Waxing Crescent, 10% of the Moon is Illuminated
Jun 22
Waxing Crescent
Jun 26
First Quarter
Jul 3
Full
Jul 10
Last Quarter
Jul 18
New

Hourly Weather History & Observations

Time (MDT) Temp. Windchill Dew Point Humidity Pressure Visibility Wind Dir Wind Speed Gust Speed Precip Events Conditions
12:51 AM 53.1 °F - 33.1 °F 47% 29.63 in - SE 3.5 mph - N/A   Unknown
1:51 AM 50.0 °F - 32.0 °F 50% 29.60 in - South 4.6 mph - N/A   Unknown
2:51 AM 46.0 °F - 30.9 °F 56% 29.61 in - Calm Calm - N/A   Unknown
3:51 AM 45.0 °F - 33.1 °F 63% 29.60 in - Calm Calm - N/A   Unknown
4:51 AM 44.1 °F 42.5 °F 33.1 °F 65% 29.59 in - SSE 3.5 mph - N/A   Unknown
5:51 AM 44.1 °F 41.5 °F 34.0 °F 68% 29.59 in - SSE 4.6 mph - N/A   Unknown
6:51 AM 45.0 °F 40.6 °F 33.1 °F 63% 29.60 in - ESE 8.1 mph - N/A   Unknown
7:51 AM 50.0 °F - 35.1 °F 57% 29.60 in - East 3.5 mph - N/A   Unknown
8:51 AM 57.0 °F - 37.0 °F 47% 29.57 in - North 4.6 mph - N/A   Unknown
9:51 AM 64.0 °F - 37.0 °F 37% 29.57 in - Calm Calm - N/A   Unknown
10:51 AM 71.1 °F - 35.1 °F 27% 29.54 in - NNE 4.6 mph - N/A   Unknown
11:51 AM 75.0 °F - 33.1 °F 22% 29.54 in - Variable 3.5 mph - N/A   Unknown
12:51 PM 75.9 °F - 30.9 °F 19% 29.52 in - SE 12.7 mph 20.7 mph N/A   Unknown
1:51 PM 75.0 °F - 28.9 °F 18% 29.55 in - Calm Calm - N/A   Unknown
2:51 PM 75.9 °F - 30.9 °F 19% 29.56 in - SSE 12.7 mph 20.7 mph N/A   Unknown
3:51 PM 75.0 °F - 28.9 °F 18% 29.56 in - South 16.1 mph 20.7 mph N/A   Unknown
4:51 PM 75.0 °F - 28.0 °F 18% 29.55 in - SSW 10.4 mph 16.1 mph N/A   Unknown
5:51 PM 75.0 °F - 27.0 °F 17% 29.55 in - Variable 5.8 mph - N/A   Unknown
6:51 PM 73.9 °F - 25.0 °F 16% 29.54 in - SSW 11.5 mph 19.6 mph N/A   Unknown
7:51 PM 72.0 °F - 21.9 °F 15% 29.54 in - Variable 6.9 mph - N/A   Unknown
8:51 PM 66.9 °F - 21.9 °F 18% 29.54 in - South 3.5 mph - N/A   Unknown
9:51 PM 55.9 °F - 26.1 °F 32% 29.54 in - SSW 3.5 mph - N/A   Unknown
10:51 PM 50.0 °F - 26.1 °F 39% 29.54 in - East 4.6 mph - N/A   Unknown
11:51 PM 48.0 °F - 25.0 °F 41% 29.54 in - Calm Calm - N/A   Unknown